Location: Busigny
(50.0342°N, 3.4671°E)
Time: 09:14:00
(UTC+00:00)

Daily predictions for brighter satellites

Satellite Brightness Start Highest point End
(mag) Time Altitude Azimuth Time Altitude Azimuth Time Altitude Azimuth
Ariane Rocket 4.3 17:14:49 10° ESE 17:18:35 21° ENE 17:22:20 10° N
Cosmos 2228 3.2 17:15:11 10° S 17:19:27 54° E 17:23:42 10° NNE
Cosmos 1953 2.3 17:16:48 10° S 17:20:51 76° E 17:24:56 10° NNE
Cosmos 1726 Rocket 3.7 17:17:13 10° S 17:21:28 53° E 17:25:44 10° NNE
Cosmos 1992 Rocket 4.0 17:17:12 10° SSW 17:22:24 79° ESE 17:27:39 10° NNE
Unknown 3.7 17:18:18 10° WSW 17:22:27 79° NNW 17:26:36 10° ENE
Unknown 3.7 17:18:41 10° WSW 17:22:51 79° NNW 17:27:01 10° ENE
Cosmos 2084 3.6 17:18:53 10° SW 17:23:26 87° SE 17:27:54 10° NE
Unknown 3.7 17:19:17 10° WSW 17:23:26 79° NNW 17:27:37 10° ENE
Shenzhou-11 Module 4.0 17:22:25 10° SW 17:24:28 18° S 17:26:30 10° SE
Meteor 1-16 Rocket 4.4 17:19:32 10° SSE 17:24:48 48° E 17:29:59 10° NNE
FengYun 1-2 T 4.4 17:20:18 10° SE 17:25:47 55° ENE 17:31:14 10° N
NOAA 12 4.1 17:21:16 10° SSE 17:26:33 82° ENE 17:31:54 10° NNW
Unknown 3.7 17:22:25 10° WSW 17:26:35 77° NNW 17:30:44 10° ENE
ATLAS 5 CENTAUR R/B 2.1 17:23:25 10° SW 17:27:44 62° NW 17:32:39 10° NE
Unknown 3.7 17:23:45 10° WSW 17:27:54 76° NNW 17:32:03 10° ENE
Cosmos 921 Rocket 3.2 17:23:31 10° S 17:27:55 56° ESE 17:32:18 10° NNE
Cosmos 1908 4.2 17:25:27 10° SE 17:28:41 25° E 17:31:56 10° NNE
Unknown 3.7 17:25:31 10° WSW 17:29:40 74° NNW 17:33:50 10° ENE
Cosmos 1758 4.3 17:26:13 10° SSW 17:30:05 51° WNW 17:33:59 10° N
Cosmos 2278 Rocket 3.1 17:27:03 10° SSE 17:31:48 28° ESE 17:36:35 10° NE
Unknown 3.8 17:28:50 10° WSW 17:32:59 72° NNW 17:37:03 11° ENE
Cosmos 1242 Rocket 2.5 17:29:26 10° N 17:33:07 66° ENE 17:36:47 10° SSE
Unknown 3.8 17:29:04 10° WSW 17:33:13 73° NNW 17:37:16 11° ENE
Unknown 3.8 17:30:24 10° WSW 17:34:32 73° NNW 17:38:33 11° ENE
Cosmos 1777 Rocket 4.1 17:30:33 10° NNW 17:35:44 59° ENE 17:40:51 10° SE
Cosmos 1844 3.8 17:31:46 10° SSW 17:37:30 85° ESE 17:43:19 10° NNE
Unknown 3.8 17:33:34 10° W 17:37:43 72° NNW 17:41:36 12° ENE
Cosmos 839 Rocket 4.2 17:34:28 10° NW 17:40:40 85° SW 17:47:36 10° SSE
Unknown 3.8 17:37:02 10° W 17:41:10 69° NNW 17:44:54 13° ENE
Cosmos 2058 Rocket 3.1 17:37:48 10° S 17:42:03 57° E 17:46:21 10° NNE
SWAS 4.4 17:38:11 10° SSW 17:42:28 87° ESE 17:46:48 10° NNE
Unknown 3.8 17:38:44 10° W 17:42:52 69° NNW 17:46:32 13° ENE
Unknown 3.8 17:40:22 10° W 17:44:30 68° NNW 17:48:05 13° ENE
USA 116 4.2 17:41:50 10° NE 17:44:35 26° E 17:47:27 10° SSE
Unknown 3.8 17:42:01 10° W 17:46:10 67° NNW 17:49:41 14° ENE
Lacrosse 5 rocket 4.0 17:43:53 10° W 17:46:23 17° SW 17:48:56 10° S
Cosmos 1726 2.1 17:43:06 10° S 17:46:41 56° E 17:50:16 10° NNE
Unknown 3.8 17:45:26 10° W 17:49:33 66° NNW 17:52:56 15° ENE
CSL-04 Rocket 3.7 17:44:33 10° SSE 17:50:02 66° ENE 17:55:28 10° N
Unknown 3.9 17:47:09 10° W 17:51:16 65° NNW 17:54:35 15° ENE
Unknown 3.9 17:48:42 10° W 17:52:50 65° NNW 17:56:04 16° ENE
Cosmos 2263 Rocket 4.3 17:48:35 10° W 17:52:58 22° NW 17:57:20 10° NNE
Unknown 3.9 17:50:22 10° W 17:54:30 65° NNW 17:57:40 16° ENE
SJ 16-02 3.1 17:52:13 10° NNE 17:54:34 14° NE 17:55:27 13° ENE
Okean-O 3.8 17:50:24 10° S 17:54:40 47° W 17:58:58 10° NNW
Unknown 3.9 17:50:50 10° W 17:54:57 64° NNW 17:58:07 17° ENE
Cosmos 1328 3.8 17:51:19 10° N 17:55:19 87° W 17:59:17 10° S
COSMO-SKYMED 1 2.5 17:51:19 10° NNE 17:55:40 66° ESE 17:59:58 10° S
Unknown 3.7 17:52:48 10° WNW 17:56:30 54° N 17:58:56 19° ENE
Cosmos 292 Rocket 3.7 17:51:49 10° SSW 17:56:31 67° ESE 18:01:15 10° NNE
Unknown 3.9 17:53:31 10° W 17:57:38 64° NNW 18:00:41 17° ENE
Cosmos 1939 Rocket 3.4 17:54:31 10° SE 17:58:13 37° ENE 18:01:59 10° N
Unknown 3.9 17:56:55 10° W 18:01:02 63° N 18:03:56 19° ENE
Unknown 3.9 17:58:32 10° W 18:02:39 63° N 18:05:29 19° ENE
NOAA 11 4.3 17:57:28 10° SE 18:02:43 52° ENE 18:07:59 10° N
ASTEX 1 3.4 17:58:34 10° N 18:03:33 90° SE 18:08:31 10° S
Cosmos 1605 Rocket 3.9 17:57:21 10° N 18:03:36 75° E 18:09:42 10° SSE
Unknown 3.9 18:00:29 10° W 18:04:36 61° N 18:07:20 20° ENE
Unknown 3.9 18:01:50 10° W 18:05:57 62° N 18:08:39 20° ENE
H-2A R/B 3.4 18:04:36 18° E 18:06:15 21° ENE 18:10:10 10° N
Cosmos 1833 Rocket 2.6 18:00:45 10° NNW 18:06:24 75° ENE 18:12:01 10° SE
Cosmos 1461 2.7 18:03:17 10° NW 18:07:22 79° NE 18:11:00 13° SE
Unknown 3.9 18:03:33 10° W 18:07:40 61° N 18:10:17 21° ENE
Unknown 3.0 18:06:51 10° WNW 18:10:17 89° SSW 18:12:01 27° ESE
Cosmos 1934 Rocket 4.4 18:04:04 10° NNW 18:10:22 70° W 18:16:41 10° S
Unknown 3.9 18:06:56 10° W 18:11:03 60° N 18:13:32 22° ENE
FALCON 9 DEB 3.1 18:08:46 10° WNW 18:12:15 85° NNE 18:13:56 29° ESE
Unknown 3.9 18:08:35 10° W 18:12:42 60° N 18:15:07 23° ENE
Meteor 2-10 3.9 18:08:17 10° SSW 18:13:22 88° W 18:18:26 10° NNE
Unknown 3.9 18:10:16 10° W 18:14:22 60° N 18:16:43 24° ENE
Envisat 3.9 18:09:34 10° S 18:14:31 52° W 18:19:30 10° NNW
Unknown 3.9 18:11:56 10° W 18:16:02 59° N 18:18:18 25° ENE
Cosmos 1727 Rocket 4.1 18:10:28 10° SSE 18:16:24 51° E 18:22:21 10° NNE
Cosmos 2084 Rocket 3.7 18:12:46 10° NW 18:17:08 53° NE 18:19:17 27° ESE
Resurs 01 Rocket 3.8 18:18:48 11° NE 18:18:48 11° NE 18:19:10 10° NE
ATLAS 3B R/B 4.1 18:14:11 10° SE 18:16:54 16° ESE 18:16:54 16° ESE
CZ-2D R/B 3.2 18:14:56 10° SSE 18:18:45 66° ENE 18:22:38 10° N
Cosmos 1898 Rocket 4.2 18:14:06 10° N 18:18:52 33° NE 18:20:56 25° E
Unknown 3.9 18:15:15 10° W 18:19:21 58° N 18:21:28 26° ENE
Unknown 3.8 18:15:50 10° WNW 18:19:37 54° N 18:21:13 30° ENE
YAOGAN 6 3.5 18:16:28 10° S 18:20:03 52° W 18:23:37 10° NNW
Unknown 4.0 18:16:35 10° W 18:20:40 58° N 18:22:44 27° ENE
Unknown 4.0 18:17:12 10° W 18:21:17 57° N 18:23:19 27° ENE
Cosmos 1356 4.2 18:18:54 10° SSW 18:22:16 53° WNW 18:25:40 10° N
Cosmos 2173 Rocket 4.3 18:16:33 10° N 18:22:32 44° ENE 18:28:09 11° SE
ATLAS CENTAUR R/B 3.7 18:20:00 10° NNW 18:22:37 15° N 18:24:27 12° NE
Unknown 4.0 18:18:52 10° W 18:22:58 57° N 18:24:55 28° ENE
Unknown 3.1 18:19:48 10° WNW 18:23:20 87° NNE 18:24:33 39° ESE
Cosmos 1802 Rocket 4.5 18:19:01 10° N 18:25:02 40° ENE 18:29:16 18° SE
CZ-4 R/B 2.5 18:21:08 10° S 18:25:11 49° W 18:29:19 10° NNW
Cosmos 1300 3.4 18:21:53 10° SSE 18:27:23 20° NE 18:28:53 10° NNE
Unknown 4.0 18:21:58 10° W 18:26:04 57° N 18:27:55 30° ENE
Lacrosse 5 1.8 18:21:53 10° WNW 18:26:58 87° SW 18:29:56 25° SE
Unknown 3.9 18:23:10 10° W 18:27:09 55° N 18:28:47 32° ENE
Unknown 4.0 18:23:41 10° W 18:27:44 56° N 18:29:25 31° ENE
CENTAUR R/B 3.9 18:24:01 10° SSE 18:26:02 16° SE 18:26:02 16° SE
Unknown 4.0 18:25:19 10° W 18:29:25 57° N 18:31:06 32° ENE
Falcon 9 debris 3.2 18:25:57 10° WNW 18:29:25 74° SSW 18:30:26 42° SE
Abrixas rocket 2.9 18:27:38 10° SW 18:30:25 35° SSE 18:30:25 35° SSE
Unknown 4.0 18:26:59 10° W 18:31:05 57° N 18:32:42 33° ENE
Unknown 4.0 18:28:39 10° W 18:32:45 56° N 18:34:18 34° ENE
Cosmos 2082 Rocket 2.1 18:27:09 10° NNW 18:32:55 82° ENE 18:37:44 15° SSE
Unknown 3.8 18:29:51 10° WNW 18:33:42 56° N 18:34:48 40° ENE
DMSP B5D1-3 4.4 18:28:43 10° NNE 18:33:51 68° ESE 18:38:58 10° S
Unknown 4.0 18:30:19 10° W 18:34:24 56° N 18:35:53 35° ENE
BREEZE M DEB (TANK) 3.6 18:33:26 10° W 18:35:50 32° SSW 18:38:41 18° SE
Cosmos 1076 Rocket 3.4 18:31:52 10° N 18:36:14 68° ENE 18:39:43 15° SSE
Cosmos 1812 Rocket 3.5 18:33:54 10° S 18:38:17 66° E 18:42:44 10° NNE
Unknown 4.0 18:36:54 10° W 18:40:59 56° N 18:42:12 39° NE
Unknown 4.0 18:38:40 10° W 18:42:46 56° N 18:43:53 41° NE
Unknown 4.0 18:40:18 10° W 18:44:23 56° N 18:45:26 42° NE
Unknown 3.2 18:42:08 10° WNW 18:45:38 68° SSW 18:46:02 60° SSE
Unknown 4.0 18:41:58 10° W 18:46:03 55° N 18:47:01 43° NE
USA 238 DEB 3.7 18:39:49 10° SSW 18:46:22 59° SE 18:51:07 21° NE
USA 238 3.7 18:39:57 10° SSW 18:46:29 59° SE 18:51:11 21° NE
Cosmos 2100 Rocket 3.9 18:40:37 10° N 18:46:50 68° ENE 18:52:56 10° SSE
CZ-2C R/B 4.2 18:47:03 29° ENE 18:47:12 30° ENE 18:52:06 10° N
Unknown 4.0 18:43:38 10° W 18:47:44 55° N 18:48:38 44° NE
YAOGAN 1 4.0 18:44:01 10° SSW 18:48:03 38° W 18:52:07 10° NNW
Cosmos 1844 Rocket 4.5 18:44:21 10° WSW 18:49:17 30° NW 18:54:13 10° NNE
Unknown 4.0 18:46:59 10° W 18:51:05 55° N 18:51:51 47° NE
Gbstr 26 Del rocket 4.5 18:45:21 10° WNW 18:51:23 58° SSW 18:55:35 25° SE
Starlink (trailer) 3.9 18:48:37 10° W 18:52:42 55° N 18:53:24 48° NE
Unknown 3.9 18:50:18 10° WNW 18:54:23 55° N 18:55:00 49° NE
Unknown 3.9 18:51:58 10° WNW 18:56:04 55° N 18:56:37 51° NNE
SJ-6B 4.0 18:58:15 28° NNE 18:58:15 28° NNE 19:00:19 10° N
Ariane Rocket 3.2 18:51:57 10° S 18:57:02 71° WSW 19:02:10 10° NNW
In-Cosmos 22 Rocket 4.0 18:53:14 10° N 18:58:39 71° ENE 19:01:10 33° SSE
Unknown 3.9 18:58:13 10° WNW 19:02:18 56° N 19:02:35 54° NNE
Unknown 3.9 18:58:38 10° WNW 19:02:43 56° N 19:02:58 54° NNE
Unknown 3.9 18:59:13 10° WNW 19:03:18 56° N 19:03:32 55° NNE
Cosmos 2151 3.8 18:59:49 10° N 19:02:43 36° NNE 19:02:43 36° NNE
Cosmos 2058 2.9 19:00:03 10° N 19:04:18 85° W 19:05:13 54° S
SJ-11-01 4.1 19:04:37 51° SSE 19:05:46 81° ENE 19:10:29 10° NNW
Unknown 3.9 19:02:19 10° WNW 19:06:25 56° N 19:06:31 56° N
Cosmos 2016 Rocket 3.9 19:00:40 10° N 19:06:55 63° ENE 19:09:06 40° SE
Unknown 3.9 19:03:41 10° WNW 19:07:47 56° N 19:07:49 56° N
Unknown 3.9 19:05:28 10° WNW 19:09:31 56° N 19:09:31 56° N
HJ-1C 4.3 19:09:59 47° WSW 19:10:12 47° W 19:13:29 10° NNW
NOSS 3-2 (A) 3.3 19:04:58 10° SSW 19:10:45 68° SE 19:13:02 40° ENE
Unknown 4.0 19:08:47 10° WNW 19:12:42 56° N 19:12:42 56° N
Unknown 4.0 19:09:00 10° WNW 19:12:55 56° N 19:12:55 56° N
ATLAS 5 CENTAUR R/B 3.8 19:09:41 10° WNW 19:13:24 22° NNW 19:16:14 15° NNE
SL-08 R/B 4.4 19:07:43 10° N 19:13:48 60° ENE 19:14:37 55° ESE
Cosmos 1937 Rocket 3.4 19:08:52 10° NNW 19:13:53 61° ENE 19:13:53 61° ENE
Cosmos 858 Rocket 4.4 19:08:50 10° NNW 19:14:00 64° ENE 19:14:04 64° ENE
Unknown 4.0 19:10:21 10° WNW 19:14:12 56° NNW 19:14:12 56° NNW
Cosmos 2278 Rocket 2.8 19:09:58 10° SW 19:15:34 57° NW 19:21:12 10° NNE
Cosmos 2297 3.9 19:11:23 10° S 19:15:55 50° SSE 19:15:55 50° SSE
Unknown 4.1 19:13:31 10° WNW 19:17:15 54° NNW 19:17:15 54° NNW
Cosmos 990 Rocket 3.8 19:12:35 10° NNW 19:17:49 81° ENE 19:18:18 72° SE
Unknown 4.2 19:16:59 10° WNW 19:20:33 53° NNW 19:20:33 53° NNW
Unknown 4.3 19:18:41 10° WNW 19:22:10 51° NNW 19:22:10 51° NNW
Unknown 4.3 19:20:18 10° WNW 19:23:44 50° NW 19:23:44 50° NW
Unknown 4.4 19:21:58 10° WNW 19:25:20 49° NW 19:25:20 49° NW
SPOT 3 Rocket 3.4 19:27:56 80° SSE 19:28:15 89° ENE 19:33:30 10° NNW
BREEZE-M DEB (TANK) 3.4 19:22:05 10° WSW 19:28:04 45° SSW 19:28:04 45° SSW
Unknown 4.5 19:25:22 10° WNW 19:28:35 47° NW 19:28:35 47° NW
Cosmos 2061 Rocket 3.9 19:25:35 10° N 19:31:52 86° W 19:34:04 43° S
SJ 16-02 2.3 19:29:30 10° NNW 19:32:27 42° NNW 19:32:27 42° NNW
NOSS 3-2 (C) 3.5 19:29:24 10° SSW 19:34:07 56° S 19:34:07 56° S
ARGOS 3.1 19:42:35 80° NNW 19:42:35 80° NNW 19:47:45 10° NNW
ADEOS Rocket 3.3 19:34:58 10° NNE 19:42:46 75° ESE 19:49:59 10° S
H-2A R/B 2.2 19:45:14 78° WNW 19:45:14 78° WNW 19:50:32 10° NNW
Resurs 01 Rocket 3.7 19:56:23 21° N 19:56:23 21° N 19:57:52 10° N
Cosmos 1898 Rocket 4.4 19:56:06 10° NW 20:01:06 44° WSW 20:01:14 44° WSW
ATLAS CENTAUR R/B 3.7 19:58:51 10° NNW 20:00:38 20° NNW 20:00:38 20° NNW
ATLAS 3B R/B 3.8 20:01:11 10° SSW 20:04:15 29° SSW 20:04:15 29° SSW
Lacrosse 5 3.8 20:05:32 10° WNW 20:09:09 22° WSW 20:09:09 22° WSW
CENTAUR R/B 4.1 20:11:34 10° SW 20:13:19 21° SW 20:13:19 21° SW
Cosmos 2297 Rocket 4.5 20:16:17 10° N 20:18:01 14° NNE 20:18:01 14° NNE
Cosmos 2123 Rocket 4.4 20:21:06 58° NW 20:21:06 58° NW 20:26:29 10° N
CZ-2C R/B 4.2 20:28:08 46° NW 20:28:08 46° NW 20:32:28 10° NNW
USA 238 DEB 4.5 20:31:04 10° WSW 20:37:35 47° NNW 20:38:36 44° N
USA 238 4.5 20:31:10 10° WSW 20:37:41 47° NNW 20:38:39 44° N
ATLAS 5 CENTAUR R/B 4.5 20:56:03 10° NW 20:57:46 16° NNW 20:57:46 16° NNW
